Location: Melara
(45.0500°N, 11.1833°E)
Time: 03:03:46
(UTC+00:00)

Lacrosse 5 rocket - Pass Details

Date: 26 May 2022
Orbit: 457 x 629 km, 57.0° (Epoch: 26 June)

Event Time Altitude Azimuth Distance (km) Brightness Sun altitude
Exits shadow 01:21:48 41° 191° (SSW) 742 1.5 -17.6°
Maximum altitude 01:22:52 59° 134° (SE) 596 1.3 -17.5°
Drops below altitude 10° 01:26:51 10° 55° (NE) 1,798 5.0 -17.1°
Sets 01:29:10 0° 52° (NE) 2,726 6.3 -16.9°
